Regional Weather Roundup
Issued by NWS

Current Version | Previous Version | Text Only | Print | Product List | Glossary On
Versions: 1 2 3 4 5 6 7 8 9 10 11 12 13 14 15 16 17 18 19 20 21 22 23 24 25 26 27 28 29 30 31 32 33 34 35 36 37 38 39 40 41 42 43 44 45 46 47 48 49 50
000
ASUS45 KREV 251310
RWRNV
NEVADA REGIONAL WEATHER ROUNDUP
NATIONAL WEATHER SERVICE RENO NV
600 AM PDT SAT MAR 25 2017

NOTE: "FAIR" INDICATES FEW OR NO CLOUDS BELOW 12,000 FEET WITH NO
SIGNIFICANT WEATHER AND/OR OBSTRUCTIONS TO VISIBILITY.

NVZ001-003-004-251400-
WESTERN NEVADA

CITY           SKY/WX    TMP DP  RH WIND       PRES   REMARKS
RENO           MOCLDY    41  33  73 CALM      30.10R
CARSON CITY    CLOUDY    39  32  75 CALM      30.10R
MINDEN         MOCLDY    32  30  93 CALM      30.10R
FALLON         CLOUDY    41  31  67 N3        30.08R
LOVELOCK       MOCLDY    34  31  88 CALM      30.08R
HAWTHORNE      CLOUDY    46  32  57 NW13      30.07R
$$

NVZ002-CAZ072-073-251400-
NORTHERN AND CENTRAL SIERRA

CITY           SKY/WX    TMP DP  RH WIND       PRES   REMARKS
S. LAKE TAHOE  MOCLDY    32  30  92 S8        30.08S
TRUCKEE        CLOUDY    32  32 100 CALM      30.10S FOG
SQUAW VLY 8000   N/A     28  28 100 W2          N/A
SUSANVILLE     PTCLDY    34  32  93 W5        30.12S
MAMMOTH LAKES  CLOUDY    33  31  91 W14       30.07R
BRIDGEPORT       N/A     28  22  78 CALM      30.03S
$$

NVZ030-031-036-251400-
NORTHERN NEVADA

CITY           SKY/WX    TMP DP  RH WIND       PRES   REMARKS
ELKO           CLOUDY    40  33  76 E3        30.05F
WINNEMUCCA     MOCLDY    31  29  92 SW6       30.08S
WENDOVER       LGT RAIN  43  37  79 CALM      30.06R
$$

NVZ035-037-251400-
CENTRAL NEVADA

CITY           SKY/WX    TMP DP  RH WIND       PRES   REMARKS
ELY            SNOW      32  32 100 N8        30.04S
EUREKA           N/A     33  30  88 CALM      30.06S
$$

NVZ013-014-251400-
SOUTH CENTRAL NEVADA

CITY           SKY/WX    TMP DP  RH WIND       PRES   REMARKS
TONOPAH        CLOUDY    40  38  93 SW5       30.03S
$$

NVZ017-020-022-251400-
SOUTHERN NEVADA

CITY           SKY/WX    TMP DP  RH WIND       PRES   REMARKS
LAS VEGAS      CLOUDY    63  28  26 SW17G25   29.92S
N. LAS VEGAS   CLOUDY    62  36  37 W13G20    29.92F
NELLIS AFB     CLOUDY    65  35  33 S12       29.92S
HENDERSON      CLOUDY    61  34  36 SW20      29.96F
MERCURY        CLOUDY    52  36  54 NW14      29.98R
$$



USA.gov is the U.S. government's official web portal to all federal, state and local government web resources and services.